TimeCST,TemperatureF,Dew PointF,Humidity,Sea Level PressureIn,VisibilityMPH,Wind Direction,Wind SpeedMPH,Gust SpeedMPH,PrecipitationIn,Events,Conditions,WindDirDegrees,DateUTC
12:15 AM,12.2,5.0,73,30.20,5.0,SE,10.4,-,N/A,,Haze,130,2013-01-25 06:15:00
12:35 AM,10.4,5.0,79,30.20,3.0,ESE,6.9,-,N/A,Snow,Light Snow,120,2013-01-25 06:35:00
12:55 AM,10.4,6.8,85,30.19,1.2,SE,5.8,-,N/A,Snow,Light Snow,130,2013-01-25 06:55:00
1:15 AM,10.4,6.8,85,30.17,1.2,SE,8.1,-,N/A,Snow,Light Snow,130,2013-01-25 07:15:00
1:35 AM,10.4,6.8,85,30.16,3.0,SE,5.8,-,N/A,Snow,Light Snow,130,2013-01-25 07:35:00
1:55 AM,12.2,8.6,85,30.15,3.0,ESE,4.6,-,N/A,Snow,Light Snow,120,2013-01-25 07:55:00
2:15 AM,12.2,8.6,85,30.14,1.5,SE,5.8,-,N/A,Snow,Light Snow,130,2013-01-25 08:15:00
2:35 AM,12.2,8.6,85,30.13,2.0,SE,4.6,-,N/A,Snow,Light Snow,130,2013-01-25 08:35:00
3:15 AM,12.2,8.6,85,30.10,3.0,ESE,5.8,-,N/A,Snow,Light Snow,120,2013-01-25 09:15:00
3:35 AM,12.2,8.6,85,30.08,4.0,ESE,3.5,-,N/A,Snow,Light Snow,120,2013-01-25 09:35:00
3:55 AM,12.2,8.6,85,30.07,5.0,SE,3.5,-,N/A,Snow,Light Snow,130,2013-01-25 09:55:00
4:15 AM,12.2,8.6,85,30.04,5.0,SE,4.6,-,N/A,Snow,Light Snow,140,2013-01-25 10:15:00
4:35 AM,12.2,8.6,85,30.04,5.0,SE,4.6,-,N/A,Snow,Light Snow,140,2013-01-25 10:35:00
4:55 AM,14.0,8.6,79,30.01,7.0,SE,6.9,-,N/A,Snow,Light Snow,140,2013-01-25 10:55:00
5:15 AM,14.0,8.6,79,30.01,10.0,SSE,6.9,-,N/A,Snow,Light Snow,160,2013-01-25 11:15:00
5:35 AM,14.0,10.4,86,29.99,10.0,SSE,6.9,-,N/A,,Overcast,150,2013-01-25 11:35:00
5:55 AM,14.0,10.4,86,29.98,10.0,SSE,6.9,-,N/A,,Overcast,160,2013-01-25 11:55:00
6:15 AM,14.0,10.4,86,29.97,10.0,SSE,8.1,-,N/A,,Overcast,160,2013-01-25 12:15:00
6:35 AM,15.8,10.4,79,29.97,10.0,South,6.9,-,N/A,,Overcast,180,2013-01-25 12:35:00
6:55 AM,15.8,10.4,79,29.95,10.0,South,6.9,-,N/A,,Overcast,180,2013-01-25 12:55:00
7:15 AM,17.6,10.4,73,29.95,10.0,South,5.8,-,N/A,,Overcast,180,2013-01-25 13:15:00
7:35 AM,17.6,10.4,73,29.94,10.0,South,6.9,-,N/A,,Overcast,190,2013-01-25 13:35:00
7:55 AM,17.6,10.4,73,29.93,10.0,SSW,8.1,-,N/A,,Overcast,200,2013-01-25 13:55:00
8:15 AM,17.6,10.4,73,29.93,10.0,SSW,9.2,-,N/A,Snow,Light Snow,210,2013-01-25 14:15:00
8:35 AM,17.6,10.4,73,29.93,5.0,SW,10.4,-,N/A,Snow,Light Snow,220,2013-01-25 14:35:00
8:55 AM,17.6,10.4,73,29.93,3.0,SW,9.2,-,N/A,Snow,Light Snow,220,2013-01-25 14:55:00
9:15 AM,17.6,10.4,73,29.93,4.0,SW,9.2,-,N/A,Snow,Light Snow,230,2013-01-25 15:15:00
9:35 AM,19.4,12.2,74,29.92,2.5,SW,10.4,-,N/A,Snow,Light Snow,230,2013-01-25 15:35:00
9:55 AM,19.4,12.2,74,29.91,4.0,SW,9.2,-,N/A,Snow,Light Snow,230,2013-01-25 15:55:00
10:15 AM,19.4,12.2,74,29.92,7.0,SW,12.7,-,N/A,Snow,Light Snow,230,2013-01-25 16:15:00
10:35 AM,19.4,12.2,74,29.93,5.0,WSW,12.7,-,N/A,Snow,Light Snow,240,2013-01-25 16:35:00
10:55 AM,19.4,12.2,74,29.93,3.0,WSW,11.5,-,N/A,Snow,Light Snow,250,2013-01-25 16:55:00
11:15 AM,21.2,12.2,68,29.93,4.0,West,9.2,-,N/A,Snow,Light Snow,260,2013-01-25 17:15:00
11:35 AM,21.2,12.2,68,29.91,5.0,West,10.4,-,N/A,Snow,Light Snow,270,2013-01-25 17:35:00
11:55 AM,21.2,12.2,68,29.92,3.0,West,16.1,-,N/A,Snow,Light Snow,280,2013-01-25 17:55:00
12:15 PM,19.4,8.6,63,29.93,4.0,WNW,23.0,26.5,N/A,,Haze,290,2013-01-25 18:15:00
12:35 PM,19.4,8.6,63,29.94,10.0,WNW,18.4,21.9,N/A,,Overcast,290,2013-01-25 18:35:00
12:55 PM,21.2,8.6,58,29.94,10.0,WNW,16.1,21.9,N/A,,Overcast,300,2013-01-25 18:55:00
1:15 PM,19.4,8.6,63,29.96,7.0,West,19.6,24.2,N/A,,Overcast,280,2013-01-25 19:15:00
1:35 PM,19.4,8.6,63,29.97,10.0,WNW,15.0,23.0,N/A,,Mostly Cloudy,300,2013-01-25 19:35:00
1:55 PM,19.4,8.6,63,29.98,10.0,West,11.5,-,N/A,,Mostly Cloudy,280,2013-01-25 19:55:00
2:15 PM,19.4,8.6,63,29.98,10.0,West,18.4,23.0,N/A,,Overcast,280,2013-01-25 20:15:00
2:35 PM,19.4,8.6,63,30.00,10.0,West,15.0,19.6,N/A,,Overcast,280,2013-01-25 20:35:00
2:55 PM,19.4,8.6,63,30.01,10.0,West,15.0,21.9,N/A,,Overcast,270,2013-01-25 20:55:00
3:15 PM,17.6,8.6,68,30.03,10.0,West,18.4,21.9,N/A,,Overcast,280,2013-01-25 21:15:00
3:35 PM,17.6,6.8,63,30.04,10.0,West,18.4,-,N/A,,Overcast,280,2013-01-25 21:35:00
3:55 PM,17.6,8.6,68,30.05,10.0,West,11.5,17.3,N/A,,Overcast,280,2013-01-25 21:55:00
4:15 PM,17.6,5.0,58,30.05,10.0,West,12.7,-,N/A,,Overcast,280,2013-01-25 22:15:00
4:35 PM,17.6,5.0,58,30.06,10.0,WNW,16.1,-,N/A,,Mostly Cloudy,290,2013-01-25 22:35:00
4:55 PM,15.8,5.0,62,30.07,10.0,West,9.2,-,N/A,,Mostly Cloudy,280,2013-01-25 22:55:00
5:15 PM,15.8,5.0,62,30.09,10.0,West,10.4,-,N/A,,Overcast,280,2013-01-25 23:15:00
5:35 PM,15.8,5.0,62,30.09,10.0,WNW,11.5,-,N/A,,Overcast,290,2013-01-25 23:35:00
5:55 PM,15.8,5.0,62,30.11,10.0,West,12.7,-,N/A,,Overcast,280,2013-01-25 23:55:00
6:15 PM,15.8,5.0,62,30.12,10.0,West,10.4,-,N/A,,Overcast,270,2013-01-26 00:15:00
6:35 PM,14.0,5.0,67,30.11,10.0,West,10.4,-,N/A,,Overcast,270,2013-01-26 00:35:00
6:55 PM,14.0,5.0,67,30.13,10.0,West,9.2,-,N/A,,Mostly Cloudy,280,2013-01-26 00:55:00
7:15 PM,14.0,3.2,62,30.14,10.0,West,8.1,-,N/A,,Clear,270,2013-01-26 01:15:00
7:35 PM,12.2,3.2,67,30.15,10.0,West,8.1,-,N/A,,Clear,270,2013-01-26 01:35:00
8:15 PM,12.2,3.2,67,30.16,10.0,West,9.2,-,N/A,,Clear,270,2013-01-26 02:15:00
8:35 PM,12.2,3.2,67,30.16,10.0,West,6.9,-,N/A,,Clear,270,2013-01-26 02:35:00
9:15 PM,10.4,1.4,67,30.18,10.0,West,9.2,-,N/A,,Clear,260,2013-01-26 03:15:00
9:35 PM,10.4,1.4,67,30.19,10.0,West,10.4,-,N/A,,Scattered Clouds,270,2013-01-26 03:35:00
10:15 PM,10.4,1.4,67,30.21,10.0,West,8.1,-,N/A,,Scattered Clouds,260,2013-01-26 04:15:00
10:35 PM,10.4,1.4,67,30.21,10.0,West,8.1,-,N/A,,Mostly Cloudy,260,2013-01-26 04:35:00
10:55 PM,10.4,1.4,67,30.23,10.0,West,9.2,-,N/A,,Overcast,270,2013-01-26 04:55:00
11:15 PM,10.4,3.2,73,30.24,10.0,West,11.5,-,N/A,,Overcast,280,2013-01-26 05:15:00
11:35 PM,10.4,1.4,67,30.25,10.0,West,9.2,-,N/A,,Overcast,280,2013-01-26 05:35:00
11:55 PM,10.4,1.4,67,30.25,10.0,West,8.1,-,N/A,,Overcast,280,2013-01-26 05:55:00